Regional Weather Roundup
Issued by NWS

Home | Current Version | Previous Version | Graphics & Text | Print | Product List | Glossary On
Versions: 1 2 3 4 5 6 7 8 9 10 11 12 13 14 15 16 17 18 19 20 21 22 23 24 25 26 27 28 29 30 31 32 33 34 35 36 37 38 39 40 41 42 43 44 45 46 47 48 49 50
000
ASUS43 KDMX 240607
RWRIA

WEATHER ROUNDUP FOR IOWA
NATIONAL WEATHER SERVICE DES MOINES IA
100 AM CDT THU JUL 24 2014

NOTE: "FAIR" INDICATES FEW OR NO CLOUDS BELOW 12,000 FEET WITH NO
SIGNIFICANT WEATHER AND/OR OBSTRUCTIONS TO VISIBILITY.

* - THESE STATIONS ARE NOT NWS STATIONS...THUS NOT UNDER NWS
QUALITY CONTROL.  THEY ALSO DO NOT REPORT WEATHER SUCH
AS PRECIPITATION OR FOG.

IAZ001>003-012>014-020>022-031>034-043>046-240700-
   NORTHWEST IOWA

CITY           SKY/WX    TMP DP  RH WIND       PRES   REMARKS
CARROLL *      CLEAR     59  57  94 CALM      30.18S
CHEROKEE *     CLEAR     63  60  91 CALM      30.19R
DENISON *      CLEAR     64  63  94 E3        30.16F
SHELDON *      PTCLDY    59  57  94 E3        30.18S
SIOUX CITY     CLEAR     66  61  84 E3        30.16S
6HR MIN TEMP:  65; 6HR MAX TEMP:  81;

SPENCER        MOCLDY    57  54  89 NW3       30.19R
6HR MIN TEMP:  57; 6HR MAX TEMP:  80;

STORM LAKE *   CLEAR     63  61  94 SE3       30.20S
$$

IAZ055>058-069>071-079>083-090>094-240700-
   SOUTHWEST IOWA

CITY           SKY/WX    TMP DP  RH WIND       PRES   REMARKS
AUDUBON *      CLEAR     61  59  94 CALM      30.20S
CRESTON *      CLEAR     64  61  88 CALM      30.18S
LAMONI         CLEAR     66  59  78 CALM      30.17S
6HR MIN TEMP:  65; 6HR MAX TEMP:  78;

SHENANDOAH *   CLEAR     66  63  88 CALM      30.17S
$$

IAZ047>049-059>061-072>074-084-240700-
   CENTRAL IOWA

CITY           SKY/WX    TMP DP  RH WIND       PRES   REMARKS
AMES           MOCLDY    62  60  93 CALM      30.16S
6HR MIN TEMP:  61; 6HR MAX TEMP:  78;

CHARITON *     CLEAR     63  59  88 CALM      30.17S
DES MOINES     CLEAR     70  59  68 CALM      30.16S
6HR MIN TEMP:  70; 6HR MAX TEMP:  80;

MARSHALLTOWN   CLEAR     62  59  90 CALM      30.16S
6HR MIN TEMP:  62; 6HR MAX TEMP:  78;

$$

IAZ004>006-015-016-023>025-035-036-240700-
   NORTH CENTRAL IOWA

CITY           SKY/WX    TMP DP  RH WIND       PRES   REMARKS
ALGONA *       CLEAR     61  57  88 CALM      30.18S
CLARION *      CLEAR     59  57  94 CALM      30.18R
ESTHERVILLE    CLEAR     58  55  90 W5        30.19R
6HR MIN TEMP:  57; 6HR MAX TEMP:  77;

FORT DODGE *   CLEAR     61  57  88 CALM      30.18S
MASON CITY     CLEAR     59  57  93 CALM      30.19S
6HR MIN TEMP:  57; 6HR MAX TEMP:  78;

IOWA FALLS *     N/A     61  57  88 CALM      30.18S
$$

IAZ007>011-017>019-026>030-037>042-050>054-066-240700-
   NORTHEAST IOWA

CITY           SKY/WX    TMP DP  RH WIND       PRES   REMARKS
CEDAR RAPIDS   CLEAR     60  56  86 CALM      30.15R
6HR MIN TEMP:  60; 6HR MAX TEMP:  77;

CHARLES CITY * CLEAR     59  55  88 CALM      30.17S
CLINTON *      CLEAR     63  55  77 E8        30.19S
DECORAH *      CLEAR     59  57  94 CALM      30.15S
DUBUQUE        CLEAR     62  57  83 SE9       30.16S
6HR MIN TEMP:  61; 6HR MAX TEMP:  75;

MONTICELLO *   CLEAR     57  57 100 CALM      30.15S
OELWEIN *      CLEAR     61  59  94 CALM      30.17S
WATERLOO       CLEAR     60  56  86 CALM      30.15S
6HR MIN TEMP:  59; 6HR MAX TEMP:  78;

$$

IAZ064-065-067-068-078-240700-
   EAST CENTRAL IOWA

CITY           SKY/WX    TMP DP  RH WIND       PRES   REMARKS
DAVENPORT      MOCLDY    64  57  78 E12       30.16S
6HR MIN TEMP:  59; 6HR MAX TEMP:  76;

IOWA CITY      CLEAR     62  58  86 W3        30.16S
6HR MIN TEMP:  62; 6HR MAX TEMP:  78;

QUAD CITIES    PTCLDY    62  58  86 E9        30.15S
6HR MIN TEMP:  61; 6HR MAX TEMP:  77;

$$

IAZ062-063-075>077-085>089-095>099-240700-
   SOUTHEAST IOWA

CITY           SKY/WX    TMP DP  RH WIND       PRES   REMARKS
BURLINGTON     CLEAR     61  59  93 CALM      30.14F FOG
6HR MIN TEMP:  60; 6HR MAX TEMP:  77;

CENTERVILLE *  CLEAR     57  57 100 CALM      30.18S
OTTUMWA        CLEAR     60  57  89 CALM      30.15S
6HR MIN TEMP:  60; 6HR MAX TEMP:  79;

$$

ABBREVIATIONS USED IN REMARKS
   TC - TEMPERATURES IN CELSIUS
  WCI - WIND CHILL INDEX
   HX - HEAT INDEX
  VSB - VISIBILITY
$$



USA.gov is the U.S. government's official web portal to all federal, state and local government web resources and services.